DELTA 1 DEB, 7907

Orbit data source: Space-Track

DELTA 1 DEB, 7907 is space debris in SSO originally from a launch on Sun, 23 Jul 1972 UTC launched from the Air Force Western Test Range (AFWTR). Debris objects in space refer to the collection of defunct objects orbiting the Earth. Examples of debris include non-operational satellites, rocket bodies, and fragments generated from explosions, collisions, or faulty payload assembly.

Loading next visibility...
Identifier
7907, 1972-058BS
Orbit
SSO
Country
Flag of USUS
Related business
Manufacturer
Unknown
Mission
Spacecraft
Bus & Motor
Unknown
Mass
Unknown
Launch date (UTC)
1972-07-23 (54 years ago)
Launch vehicle
Unknown
Launch site
Air Force Western Test Range (AFWTR)
Object type
Payload
Rocket body
Debris
Shape & HBR
Unknown shape, 0.1 m
Radar Cross Section
Medium (>0.1 m² and <1 m²)

Expand to show TLE details & history
Last TLE update: 1 week ago

TLE from 1 week ago
0 DELTA 1 DEB
1 07907U 72058BS  26154.98479430  .00000718  00000-0  31833-3 0  9994
2 07907  97.6971 305.2658 0267208 267.3067  89.7497 14.08442153577677
Epoch: 2026-06-03T23:38Z
TLE epoch observation values (Epoch: 2026-06-03T23:38:06.227Z)
Latitude
-0.00007°
Longitude
58.3043°
Altitude
871.964 km
Speed
7.414 km/s
True Right ascension
20h 21m 03s
True Declination
0° 00' 00"
Sunlit
Object was in full shadow at epoch
Visualization orbit readout
Latitude
Unknown
Longitude
Unknown
Altitude
Unknown
Speed
Unknown
Apparent Right ascension
Unknown
Apparent Declination
Unknown
Sunlit
N/A
Visualization observer readout
Local Sidereal Time
15:28:34
Azimuth
Unknown
Elevation
Unknown
Doppler factor
Unknown
Orbital elements
Apogee altitude
1,055.291 km
Perigee altitude
668.375 km
Semi-major axis
7,239.97 km
Eccentricity
0.02672
Inclination
97.6971°
RAAN
305.2658°
Arg. of periapsis
267.3067°
True anomaly
92.81064°
Mean anomaly
89.7497°
Eccentric anomaly
91.28031°
Mean motion
3.52321 °/min
Orbital period
102.18 mins
BSTAR
0.00031833
Loading maneuver chart data...
Computing Atmospheric mass density...
Loading historical data...
Loading historical data...
Loading historical data...
Loading historical data...
Loading historical data...
Loading historical data...
Loading historical data...

Documentation

Showing up to 5 results
|